NIEUW!!! Volg onze weer- en natuurfoto's op Instagram @ weerstationmaaseik.be

WS Maaseik 1 Meer informatie WS Maaseik 1


WS Maaseik 2 Meer informatie WS Maaseik 2


Regen radar Meer informatie rain snow radar


Bezoek onze andere website:

Vorige versie
weerstation Maaseik


Bezoek ook eens deze sites:

Weerstation Geleen



Het weer levert geen direct gevaar op.    Er zijn geen waarschuwingen afgegeven.

15 daagse weersverwachting Maia (PT)

  • Overzicht
  • Per uur
  • 15 dagen
  • Extra
  • Vergelijk
  • Kaarten
  • Dagkaart
  • Meer »
  • Info
  • Statistieken
  • Directe link
    Temp 6h Neerslag Wind  
 07:51     17:05    Daglengte: 9:14 Vandaag
18:00
11°
 
4
 07:52     17:05    Daglengte: 9:13 Morgen
00:00
11°
0.6 mm
3
06:00
11°
2.8 mm
5
12:00
12°
7.7 mm
7
18:00
14°
31.7 mm
8
 07:53     17:05    Daglengte: 9:12 Vrijdag 13 Dec
00:00
14°
33.2 mm
7
06:00
14°
33.0 mm
6
12:00
15°
27.2 mm
5
18:00
14°
25.9 mm
4
 07:53     17:06    Daglengte: 9:13 Zaterdag 14 Dec
00:00
13°
18.1 mm
3
06:00
13°
16.9 mm
3
12:00
14°
27.1 mm
5
Locatie info
Region: Porto
Latitude: 41.2327°N
Longitude: -8.6232°E
93 masl
Postcode: 4470-151
Temp/Neerslag /Baro Onweer/Dauwpunt
    Temp Baro 1h Neerslag Dauwpunt Wind UV Bewolking  
 07:51     17:05    Daglengte: 9:14 Vandaag
17:00
11°
1029.4 hPa
48%
7.0°
3
Windvlaag: 0.2 m/s
31%
18:00
11°
1029.5 hPa
80%
6.8°
4
Windvlaag: 0.5 m/s
37%
19:00
11°
1029.6 hPa
82%
6.9°
3
Windvlaag: 0.2 m/s
41%
20:00
10°
1029.4 hPa
82%
7.1°
2
Windvlaag: -0.3 m/s
44%
21:00
10°
1029.3 hPa 0.1 mm
82%
7.2°
2
Windvlaag: 0.6 m/s
71%
22:00
11°
1028.8 hPa 0.1 mm
82%
7.3°
2
Windvlaag: 1.1 m/s
63%
23:00
11°
1028.4 hPa 0.1 mm
82%
7.5°
3
Windvlaag: 1.5 m/s
66%
 07:52     17:05    Daglengte: 9:13 Morgen
00:00
11°
1028.0 hPa 0.2 mm
82%
7.5°
3
Windvlaag: 0.9 m/s
84%
01:00
11°
1027.3 hPa 0.4 mm
82%
7.8°
3
Windvlaag: 0.9 m/s
87%
02:00
11°
1026.6 hPa 0.2 mm
82%
7.8°
4
Windvlaag: 0.7 m/s
87%
03:00
11°
1025.9 hPa 0.3 mm
82%
8.3°
4
Windvlaag: 0.8 m/s
90%
04:00
11°
1024.8 hPa 0.3 mm
82%
8.7°
5
Windvlaag: 1.2 m/s
77%
05:00
11°
1024.2 hPa 0.7 mm
82%
9.0°
5
Windvlaag: 1.2 m/s
68%
06:00
11°
1023.7 hPa 0.9 mm
82%
9.3°
5
Windvlaag: 1.2 m/s
85%
07:00
12°
1023.3 hPa 0.5 mm
82%
9.5°
5
Windvlaag: 1 m/s
77%
08:00
12°
1023.2 hPa 0.6 mm
82%
9.5°
5
Windvlaag: 1.2 m/s
90%
09:00
12°
1023.3 hPa 1.5 mm
82%
9.4°
5
Windvlaag: 1.6 m/s
90%
10:00
12°
1023.0 hPa 1.4 mm
82%
10.0°
5
Windvlaag: 1.6 m/s
91%
11:00
12°
1022.5 hPa 1.6 mm
82%
10.2°
7
Windvlaag: 2 m/s
90%
12:00
12°
1021.5 hPa 2.1 mm
82%
10.3°
7
Windvlaag: 2.9 m/s
91%
13:00
13°
1020.5 hPa 2.9 mm
82%
11.1°
7
Windvlaag: 2.9 m/s
91%
14:00
13°
1019.5 hPa 4.0 mm
82%
11.4°
7
Windvlaag: 2.9 m/s
91%
15:00
13°
1018.8 hPa 5.4 mm
82%
11.8°
7
Windvlaag: 2.5 m/s
91%
16:00
13°
1018.4 hPa 5.6 mm
82%
12.2°
8
Windvlaag: 2.7 m/s
91%
17:00
14°
1018.1 hPa 6.6 mm
82%
12.5°
8
Windvlaag: 2.4 m/s
91%
18:00
14°
1018.1 hPa 7.3 mm
82%
12.7°
8
Windvlaag: 2.1 m/s
91%
19:00
14°
1018.3 hPa 6.6 mm
82%
12.8°
8
Windvlaag: 1.4 m/s
91%
20:00
14°
1018.6 hPa 5.9 mm
82%
12.9°
7
Windvlaag: 1.4 m/s
91%
21:00
14°
1018.7 hPa 5.6 mm
82%
12.8°
7
Windvlaag: 1.5 m/s
89%
22:00
14°
1018.9 hPa 6.6 mm
82%
12.9°
7
Windvlaag: 0.8 m/s
91%
23:00
14°
1018.9 hPa 4.6 mm
82%
12.9°
7
Windvlaag: 0.9 m/s
90%
 07:53     17:05    Daglengte: 9:12 Vrijdag 13 Dec
00:00
14°
1018.7 hPa 4.0 mm
82%
12.6°
7
Windvlaag: 1.1 m/s
91%
01:00
14°
1018.5 hPa 5.4 mm
82%
12.6°
6
Windvlaag: 1.1 m/s
91%
02:00
14°
1018.3 hPa 5.6 mm
81%
12.5°
7
Windvlaag: 1.1 m/s
89%
03:00
14°
1018.3 hPa 5.4 mm
81%
12.6°
7
Windvlaag: 0.4 m/s
86%
04:00
14°
1018.3 hPa 5.5 mm
81%
12.4°
6
Windvlaag: 0.4 m/s
85%
05:00
14°
1018.6 hPa 5.6 mm
81%
12.4°
6
Windvlaag: 0.9 m/s
83%
06:00
14°
1019.0 hPa 5.5 mm
81%
12.4°
6
Windvlaag: 0.2 m/s
82%
07:00
14°
1019.7 hPa
82%
12.3°
6
Windvlaag: 0.2 m/s
70%
08:00
14°
1020.1 hPa 5.8 mm
82%
12.4°
6
Windvlaag: 0.5 m/s
86%
09:00
14°
1020.5 hPa 4.1 mm
81%
12.4°
6
Windvlaag: 0.3 m/s
86%
10:00
14°
1021.0 hPa 5.7 mm
82%
12.6°
5
Windvlaag: 0.7 m/s
85%
11:00
14°
1021.2 hPa 5.7 mm
81%
12.7°
5
Windvlaag: 0.6 m/s
78%
12:00
15°
1021.0 hPa 5.8 mm
82%
12.9°
5
Windvlaag: 0.6 m/s
83%
13:00
15°
1020.6 hPa 4.3 mm
82%
12.8°
5
Windvlaag: 0.7 m/s
81%
14:00
14°
1020.4 hPa 4.3 mm
82%
12.9°
4
Windvlaag: 1.3 m/s
73%
15:00
14°
1020.5 hPa 4.3 mm
99%
13.1°
5
Windvlaag: 1.4 m/s
80%
16:00
14°
1020.6 hPa 4.4 mm
100%
13.2°
5
Windvlaag: 1.7 m/s
74%
17:00
14°
1020.6 hPa 4.3 mm
100%
13.0°
4
Windvlaag: 1.5 m/s
90%
18:00
14°
1020.7 hPa 4.3 mm
100%
12.9°
4
Windvlaag: 1.7 m/s
88%
19:00
13°
1020.9 hPa 6.0 mm
98%
12.8°
4
Windvlaag: 1.7 m/s
87%
20:00
13°
1021.1 hPa
98%
12.7°
4
Windvlaag: 1.7 m/s
87%
21:00
13°
1021.2 hPa 6.1 mm
100%
12.4°
4
Windvlaag: 1.9 m/s
59%
22:00
13°
1021.3 hPa 6.0 mm
98%
12.1°
4
Windvlaag: 2 m/s
57%
23:00
13°
1021.2 hPa
90%
11.9°
4
Windvlaag: 2.6 m/s
63%
 07:53     17:06    Daglengte: 9:13 Zaterdag 14 Dec
00:00
13°
1020.8 hPa
98%
12.0°
3
Windvlaag: 2.8 m/s
88%
01:00
13°
1020.4 hPa 6.2 mm
100%
12.1°
3
Windvlaag: 2.6 m/s
93%
02:00
13°
1020.0 hPa
100%
12.2°
4
Windvlaag: 3.1 m/s
84%
03:00
13°
1019.9 hPa 4.4 mm
100%
12.1°
3
Windvlaag: 2.8 m/s
80%
04:00
13°
1019.4 hPa 6.3 mm
100%
11.5°
3
Windvlaag: 2.3 m/s
79%
05:00
13°
1019.2 hPa
48%
11.5°
4
Windvlaag: 2.8 m/s
85%
06:00
13°
1019.3 hPa
36%
11.7°
3
Windvlaag: 2.8 m/s
51%
07:00
13°
1019.4 hPa
31%
11.6°
4
Windvlaag: 6.4 m/s
63%
08:00
13°
1019.5 hPa
81%
11.5°
4
Windvlaag: 6.9 m/s
68%
09:00
13°
1019.7 hPa
97%
11.5°
4
Windvlaag: 6.7 m/s
76%
10:00
14°
1019.9 hPa 6.3 mm
100%
11.4°
4
Windvlaag: 7.1 m/s
82%
11:00
14°
1020.0 hPa 10.4 mm
94%
11.3°
5
Windvlaag: 7.9 m/s
86%
12:00
14°
1019.8 hPa 10.4 mm
95%
11.6°
5
Windvlaag: 4.3 m/s
87%
13:00
14°
1019.3 hPa
97%
11.7°
5
Windvlaag: 9.7 m/s
86%
14:00
14°
1018.8 hPa 10.4 mm
93%
11.8°
5
Windvlaag: 11.3 m/s
97%
15:00
14°
1018.4 hPa
34%
11.9°
5
Windvlaag: 12.2 m/s
80%
16:00
14°
1018.2 hPa
46%
12.0°
5
Windvlaag: 11.5 m/s
75%
Temp/Neerslag /Baro Onweer/Dauwpunt
    Temp Baro Neerslag Dauwpunt Wind Bewolking  
 07:51     17:05    Daglengte: 9:14 Vandaag
18:00
11°
1029.5 hPa   6.8°
4
37%
21:00
10°
1029.3 hPa 0.1 mm 7.2°
2
71%
 07:52     17:05    Daglengte: 9:13 Morgen
00:00
11°
1028.0 hPa 0.5 mm 7.5°
3
84%
03:00
11°
1025.9 hPa 0.8 mm 8.3°
4
90%
06:00
11°
1023.7 hPa 1.9 mm 9.3°
5
85%
09:00
12°
1023.3 hPa 2.6 mm 9.4°
5
90%
12:00
12°
1021.5 hPa 5.1 mm 10.3°
7
91%
15:00
13°
1018.8 hPa 12.2 mm 11.8°
7
91%
18:00
14°
1018.1 hPa 19.5 mm 12.7°
8
91%
21:00
14°
1018.7 hPa 18.0 mm 12.8°
7
89%
 07:53     17:05    Daglengte: 9:12 Vrijdag 13 Dec
00:00
14°
1018.7 hPa 15.2 mm 12.6°
7
91%
03:00
14°
1018.3 hPa 16.4 mm 12.6°
7
86%
06:00
14°
1019.0 hPa 16.6 mm 12.4°
6
82%
09:00
14°
1020.5 hPa 9.9 mm 12.4°
6
86%
12:00
15°
1021.0 hPa 17.2 mm 12.9°
5
83%
15:00
14°
1020.5 hPa 12.9 mm 13.1°
5
80%
18:00
14°
1020.7 hPa 13.0 mm 12.9°
4
88%
21:00
13°
1021.2 hPa 12.1 mm 12.4°
4
59%
 07:53     17:06    Daglengte: 9:13 Zaterdag 14 Dec
00:00
13°
1020.8 hPa 6.0 mm 12.0°
3
88%
03:00
13°
1019.9 hPa 10.6 mm 12.1°
3
80%
06:00
13°
1019.3 hPa 6.3 mm 11.7°
3
51%
09:00
13°
1019.7 hPa   11.5°
4
76%
12:00
14°
1019.8 hPa 27.1 mm 11.6°
5
87%
15:00
14°
1018.4 hPa 10.4 mm 11.9°
5
80%
18:00
13°
1017.7 hPa 31.1 mm 11.8°
5
87%
21:00
13°
1017.2 hPa 26.2 mm 11.4°
6
85%
 07:54     17:06    Daglengte: 9:12 Zondag 15 Dec
00:00
13°
1016.7 hPa 26.5 mm 11.3°
7
87%
03:00
12°
1014.9 hPa 26.8 mm 11.0°
7
82%
06:00
12°
1013.0 hPa 28.0 mm 10.7°
7
77%
09:00
12°
1012.3 hPa 33.8 mm 11.2°
8
84%
12:00
13°
1011.6 hPa 44.2 mm 11.6°
9
92%
15:00
12°
1010.8 hPa 50.6 mm 10.9°
5
92%
18:00
11°
1010.1 hPa 58.2 mm 10.1°
1
92%
21:00
11°
1008.3 hPa 69.7 mm 9.3°
1
92%
 07:55     17:06    Daglengte: 9:11 Maandag 16 Dec
00:00
10°
1006.4 hPa 74.9 mm 8.5°
2
92%
03:00
10°
1003.6 hPa 77.6 mm 8.7°
2
92%
06:00
10°
Voelt als: 8.6°
1000.8 hPa 78.2 mm 9.0°
3
92%
09:00
11°
999.8 hPa 83.8 mm 8.3°
3
89%
12:00
12°
998.8 hPa 91.1 mm 7.0°
5
86%
15:00
10°
997.8 hPa 91.4 mm 7.0°
3
89%
18:00
Voelt als: 7.8°
997.0 hPa 91.5 mm 7.1°
3
91%
21:00
Voelt als: 7.1°
998.0 hPa 91.8 mm 6.5°
2
88%
 07:55     17:07    Daglengte: 9:12 Dinsdag 17 Dec
00:00
Voelt als: 6.6°
998.9 hPa 92.1 mm 6.0°
2
86%
03:00
Voelt als: 6.4°
1000.8 hPa 93.2 mm 6.2°
2
87%
06:00
Voelt als: 6.1°
1002.8 hPa 95.3 mm 6.6°
3
87%
09:00
Voelt als: 6.9°
1005.8 hPa 97.6 mm 7.3°
4
70%
12:00
10°
1008.6 hPa 100.7 mm 8.1°
5
52%
15:00
10°
Voelt als: 7.0°
1010.8 hPa 101.2 mm 7.4°
5
41%
18:00
Voelt als: 6.2°
1013.4 hPa 101.2 mm 6.8°
6
31%
21:00
Voelt als: 5.6°
1015.5 hPa 101.2 mm 6.1°
4
56%
 07:56     17:07    Daglengte: 9:11 Woensdag 18 Dec
00:00
Voelt als: 5.5°
1017.4 hPa 101.2 mm 5.4°
2
82%
03:00
Voelt als: 5.6°
1017.9 hPa 101.2 mm 5.5°
3
85%
06:00
Voelt als: 5.8°
1018.3 hPa 101.3 mm 5.6°
3
87%
09:00
10°
Voelt als: 7.8°
1018.5 hPa 101.4 mm 6.2°
4
89%
12:00
12°
1018.5 hPa 101.4 mm 6.5°
5
90%
15:00
12°
1016.8 hPa   7.0°
6
91%
18:00
12°
1015.3 hPa 203.1 mm 7.4°
7
92%
 07:57     17:07    Daglengte: 9:10 Donderdag 19 Dec
00:00
11°
1010.4 hPa 203.1 mm 8.3°
10
92%
06:00
11°
1004.9 hPa 203.3 mm 9.3°
9
92%
12:00
12°
1004.6 hPa 203.4 mm 9.4°
7
42%
18:00
12°
1007.9 hPa 203.8 mm 7.8°
5
92%
 07:57     17:08    Daglengte: 9:11 Vrijdag 20 Dec
00:00
12°
1005.6 hPa 206.8 mm 10.6°
9
92%
06:00
14°
1002.3 hPa 209.4 mm 12.7°
11
92%
12:00
15°
1000.0 hPa 209.9 mm 13.4°
12
92%
18:00
12°
1004.3 hPa 218.9 mm 9.6°
6
29%
 07:58     17:08    Daglengte: 9:10 Zaterdag 21 Dec
00:00
12°
1015.5 hPa 227.5 mm 9.1°
4
0%
06:00
11°
1017.7 hPa 231.7 mm 8.5°
5
0%
12:00
13°
1017.8 hPa 1.1 mm 9.1°
0
49%
18:00
12°
1018.8 hPa 0.9 mm 8.8°
1
41%
 07:58     17:09    Daglengte: 9:11 Zondag 22 Dec
00:00
11°
1021.0 hPa 0.3 mm 7.9°
1
42%
06:00
10°
1020.6 hPa 0.6 mm 7.8°
2
43%
12:00
12°
1021.1 hPa 1.0 mm 8.5°
2
53%
18:00
12°
1020.2 hPa 1.0 mm 9.1°
2
52%
 07:59     17:09    Daglengte: 9:10 Maandag 23 Dec
00:00
11°
1020.6 hPa 0.8 mm 8.7°
1
54%
06:00
11°
1019.0 hPa 0.4 mm 7.6°
1
61%
12:00
12°
1018.2 hPa 0.4 mm 8.6°
3
65%
18:00
12°
1015.9 hPa 4.0 mm 9.3°
1
69%
 07:59     17:10    Daglengte: 9:11 Dinsdag 24 Dec
00:00
11°
1015.9 hPa 2.4 mm 8.8°
1
67%
06:00
11°
1015.5 hPa 2.4 mm 8.3°
0
52%
12:00
12°
1017.2 hPa 2.0 mm 8.4°
1
49%
18:00
11°
1017.3 hPa 0.4 mm 8.4°
2
41%
 07:59     17:10    Daglengte: 9:11 Woensdag 25 Dec
00:00
10°
1018.5 hPa 0.5 mm 7.4°
2
44%
06:00
10°
Voelt als: 8.7°
1018.1 hPa 0.7 mm 7.0°
2
49%
12:00
12°
1018.1 hPa 2.0 mm 7.7°
2
49%
18:00
11°
1017.8 hPa 3.2 mm 8.2°
2
44%
 08:00     17:11    Daglengte: 9:11 Donderdag 26 Dec
00:00
10°
Voelt als: 8.7°
1019.6 hPa 0.8 mm 7.1°
2
37%
06:00
Voelt als: 8.1°
1019.5 hPa 0.4 mm 6.3°
2
34%
12:00
11°
1020.4 hPa 0.7 mm 6.8°
1
42%
  CAPE Lifted Index Hail Supercell Tornado SRH 3km CL BTM PRES CL TOP PRES Swiss DWD icon SMHI TS
 07:51     17:05    Daglengte: 9:14 Vandaag
17:00 62 J/kg 7.5 K 0 % 0 % 0 % 0 m²/s² 0 0 12.78 2
18:00 68 J/kg 7.0 K 0 % 0 % 0 % 0 m²/s² 0 0 13.09 2
19:00 77 J/kg 6.8 K 0 % 0 % 0 % 0 m²/s² 0 0 12.86 3
20:00 80 J/kg 6.8 K 0 % 0 % 0 % 0 m²/s² 0 0 11.84 3
21:00 81 J/kg 6.3 K 0 % 0 % 0 % 0 m²/s² 0 0 9.93 3
22:00 77 J/kg 6.3 K 0 % 0 % 0 % 0 m²/s² 0 0 9.93 3
23:00 81 J/kg 5.6 K 0 % 0 % 0 % 0 m²/s² 0 0 9.2 3
 07:52     17:05    Daglengte: 9:13 Morgen
00:00 77 J/kg 5.3 K 0 % 0 % 0 % 0 m²/s² 0 0 8.27 80
01:00 94 J/kg 5.7 K 0 % 0 % 0 % 0 m²/s² 0 0 8.94 80
02:00 110 J/kg 6.0 K 0 % 0 % 0 % 0 m²/s² 0 0 9.48 80
03:00 122 J/kg 6.8 K 0 % 0 % 0 % 0 m²/s² 0 0 9.17 80
04:00 121 J/kg 6.9 K 0 % 0 % 0 % 0 m²/s² 0 0 8.61 80
05:00 121 J/kg 7.1 K 0 % 0 % 0 % 0 m²/s² 0 0 8.27 80
06:00 147 J/kg 7.0 K 0 % 0 % 0 % 0 m²/s² 0 0 7.81 80
07:00 160 J/kg 7.3 K 0 % 0 % 0 % 0 m²/s² 0 0 7.66 80
08:00 150 J/kg 7.7 K 0 % 0 % 0 % 0 m²/s² 0 0 8 80
09:00 125 J/kg 8.2 K 0 % 0 % 0 % 0 m²/s² 0 0 8.53 61
10:00 100 J/kg 8.3 K 0 % 0 % 0 % 0 m²/s² 0 0 8.69 61
11:00 58 J/kg 8.4 K 0 % 0 % 0 % 0 m²/s² 0 0 8.64 61
12:00 35 J/kg 8.1 K 0 % 0 % 0 % 0 m²/s² 0 0 8.28 63
13:00 19 J/kg 7.1 K 0 % 0 % 0 % 0 m²/s² 0 0 7.28 63
14:00 15 J/kg 6.4 K 0 % 0 % 0 % 0 m²/s² 0 0 6.52 63
15:00 7 J/kg 6.1 K 0 % 0 % 0 % 0 m²/s² 0 0 6.19 63
16:00 5 J/kg 5.9 K 0 % 0 % 0 % 0 m²/s² 0 0 5.99 63
17:00 4 J/kg 5.6 K 0 % 0 % 0 % 0 m²/s² 0 0 5.69 63
18:00 17 J/kg 5.5 K 0 % 0 % 0 % 0 m²/s² 0 0 5.59 63
19:00 12 J/kg 5.1 K 0 % 0 % 0 % 0 m²/s² 0 0 5.19 63
20:00 4 J/kg 4.8 K 0 % 0 % 0 % 0 m²/s² 0 0 4.89 61
21:00 4 J/kg 4.0 K 0 % 0 % 0 % 0 m²/s² 0 0 4.39 61
22:00 10 J/kg 4.1 K 0 % 0 % 0 % 0 m²/s² 0 0 4.61 61
23:00 12 J/kg 4.6 K 0 % 0 % 0 % 0 m²/s² 0 0 6.73 80
 07:53     17:05    Daglengte: 9:12 Vrijdag 13 Dec
00:00 9 J/kg 5.4 K 0 % 0 % 0 % 0 m²/s² 0 0 9.9 3
01:00 8 J/kg 5.2 K 0 % 0 % 0 % 0 m²/s² 0 0 11.74 3
02:00 5 J/kg 5.4 K 0 % 0 % 0 % 0 m²/s² 0 0 14.04 3
03:00 3 J/kg 5.9 K 0 % 0 % 0 % 0 m²/s² 0 0 15.74 3
04:00 15 J/kg 6.4 K 0 % 0 % 0 % 0 m²/s² 0 0 16.27 3
05:00 22 J/kg 6.7 K 0 % 0 % 0 % 0 m²/s² 0 0 16.15 3
06:00 27 J/kg 7.1 K 0 % 0 % 0 % 0 m²/s² 0 0 17 3
07:00 22 J/kg 7.3 K 0 % 0 % 0 % 0 m²/s² 0 0 17.68 3
08:00 30 J/kg 7.4 K 0 % 0 % 0 % 0 m²/s² 0 0 17.81 3
09:00 31 J/kg 7.5 K 0 % 0 % 0 % 0 m²/s² 0 0 17.91 3
10:00 41 J/kg 7.3 K 0 % 0 % 0 % 0 m²/s² 0 0 17.74 3
11:00 37 J/kg 7.1 K 0 % 0 % 0 % 0 m²/s² 0 0 17.54 3
12:00 43 J/kg 6.9 K 0 % 0 % 0 % 0 m²/s² 0 0 17.34 3
13:00 55 J/kg 6.8 K 0 % 0 % 0 % 0 m²/s² 0 0 17.27 80
14:00 58 J/kg 6.8 K 0 % 0 % 0 % 0 m²/s² 0 0 17.81 80
15:00 58 J/kg 6.9 K 0 % 0 % 0 % 0 m²/s² 0 0 17.88 80
16:00 64 J/kg 7.0 K 0 % 0 % 0 % 0 m²/s² 0 0 17.98 80
17:00 68 J/kg 7.1 K 0 % 0 % 0 % 0 m²/s² 0 0 17.54 3
18:00 76 J/kg 7.3 K 0 % 0 % 0 % 0 m²/s² 0 0 16.03 80
19:00 83 J/kg 7.6 K 0 % 0 % 0 % 0 m²/s² 0 0 14.41 80
20:00 82 J/kg 8.1 K 0 % 0 % 0 % 0 m²/s² 0 0 14.16 2
21:00 72 J/kg 8.2 K 0 % 0 % 0 % 0 m²/s² 0 0 13.78 80
22:00 75 J/kg 8.2 K 0 % 0 % 0 % 0 m²/s² 0 0 13.81 3
23:00 70 J/kg 8.6 K 0 % 0 % 0 % 0 m²/s² 0 0 13.91 80
 07:53     17:06    Daglengte: 9:13 Zaterdag 14 Dec
00:00 67 J/kg 8.9 K 0 % 0 % 0 % 0 m²/s² 0 0 13.94 3
01:00 59 J/kg 8.7 K 0 % 0 % 0 % 0 m²/s² 0 0 14.43 80
02:00 85 J/kg 8.0 K 0 % 0 % 0 % 0 m²/s² 0 0 15.26 3
03:00 69 J/kg 8.4 K 0 % 0 % 0 % 0 m²/s² 0 0 17.49 3
04:00 84 J/kg 7.5 K 0 % 0 % 0 % 0 m²/s² 0 0 16.98 2
05:00 52 J/kg 7.8 K 0 % 0 % 0 % 0 m²/s² 0 0 18.21 2
06:00 75 J/kg 6.7 K 0 % 0 % 0 % 0 m²/s² 0 0 17.11 2
07:00 45 J/kg 7.4 K 0 % 0 % 0 % 0 m²/s² 0 0 17.3 3
08:00 43 J/kg 7.0 K 0 % 0 % 0 % 0 m²/s² 0 0 16.42 3
09:00 66 J/kg 6.5 K 0 % 0 % 0 % 0 m²/s² 0 0 15.5 3
10:00 44 J/kg 7.0 K 0 % 0 % 0 % 0 m²/s² 0 0 15.61 61
11:00 23 J/kg 7.1 K 0 % 0 % 0 % 0 m²/s² 0 0 16.04 3
12:00 65 J/kg 5.9 K 0 % 0 % 0 % 0 m²/s² 0 0 14.45 80
13:00 54 J/kg 6.1 K 0 % 0 % 0 % 0 m²/s² 0 0 14.65 3
14:00 47 J/kg 5.8 K 0 % 0 % 0 % 0 m²/s² 0 0 13.69 80
15:00 49 J/kg 5.6 K 0 % 0 % 0 % 0 m²/s² 0 0 13.19 2
16:00 52 J/kg 5.2 K 0 % 0 % 0 % 0 m²/s² 0 0 13.09 3
Temp Baro Wind Neerslag
  EWN Forecast EWN WRFDA DWD ICON FMI HIRLAM MET Norway GFS
 07:51     17:05    Daglengte: 9:14 Vandaag
18:00 11.1° 1029.5 hPa 3.5 m/s 0.0 mm 11.8° 1027.4 hPa 4.1 m/s 0.2 mm 10.3° 1029.2 hPa 1.1 m/s -1.9 mm 12.2° 1029.6 hPa 3.8 m/s 0.0 mm 11.1° 1029.9 hPa 4.3 m/s 12.3° 1029.2 hPa 5.2 m/s
21:00 10.3° 1029.3 hPa 2.4 m/s 0.1 mm 12.1° 1027.5 hPa 3.7 m/s 0.6 mm 10.1° 1029.4 hPa 0.7 m/s 0.3 mm 12.0° 1029.1 hPa 3.5 m/s 0.0 mm 10.1° 1029.5 hPa 2.5 m/s 12.0° 1029.0 hPa 4.0 m/s
 07:52     17:05    Daglengte: 9:13 Morgen
00:00 10.6° 1028.0 hPa 2.8 m/s 0.5 mm 12.4° 1026.7 hPa 4.6 m/s 0.9 mm 10.2° 1028.3 hPa 0.9 m/s 0.5 mm 12.1° 1027.8 hPa 3.9 m/s 0.0 mm 10.4° 1028.2 hPa 2.3 m/s 12.3° 1027.7 hPa 5.2 m/s
03:00 11.1° 1025.9 hPa 4.0 m/s 0.8 mm 12.3° 1024.5 hPa 5.2 m/s 1.3 mm 10.9° 1026.2 hPa 1.7 m/s 0.9 mm 12.4° 1025.4 hPa 4.7 m/s 0.0 mm 10.9° 1026.6 hPa 4.2 m/s 12.7° 1025.1 hPa 6.2 m/s
06:00 11.4° 1023.7 hPa 5.1 m/s 1.9 mm 12.5° 1022.7 hPa 6.0 m/s 2.4 mm 11.4° 1023.6 hPa 3.4 m/s 1.5 mm 12.6° 1023.0 hPa 5.6 m/s 0.0 mm 10.9° 1024.8 hPa 5.3 m/s 12.8° 1023.0 hPa 7.7 m/s
09:00 11.8° 1023.3 hPa 5.5 m/s 2.6 mm 12.8° 1022.3 hPa 6.3 m/s 4.6 mm 11.7° 1023.3 hPa 4.4 m/s 1.8 mm 12.9° 1022.4 hPa 6.2 m/s 0.0 mm 11.5° 1024.3 hPa 5.3 m/s 13.2° 1022.4 hPa 7.4 m/s
12:00 12.5° 1021.5 hPa 6.8 m/s 5.1 mm 13.4° 1021.2 hPa 6.9 m/s 6.0 mm 12.3° 1021.3 hPa 4.3 m/s 6.6 mm 13.4° 1020.6 hPa 7.4 m/s 0.0 mm 12.3° 1022.6 hPa 7.7 m/s 13.4° 1021.1 hPa 8.5 m/s
15:00 13.2° 1018.8 hPa 7.5 m/s 12.2 mm 13.0° 1018.6 hPa 8.0 m/s 22.2 mm 13.2° 1018.1 hPa 5.5 m/s 12.4 mm 14.0° 1017.7 hPa 7.7 m/s 0.0 mm 13.1° 1019.4 hPa 8.4 m/s 13.7° 1018.0 hPa 10.9 m/s
18:00 13.8° 1018.1 hPa 8.0 m/s 19.5 mm 13.6° 1018.4 hPa 9.5 m/s 53.9 mm 13.9° 1017.6 hPa 6.1 m/s 15.9 mm 14.3° 1016.9 hPa 8.2 m/s 0.0 mm 13.7° 1018.5 hPa 8.9 m/s 14.2° 1017.5 hPa 10.5 m/s
21:00 13.9° 1018.7 hPa 7.3 m/s 18.0 mm 14.1° 1019.2 hPa 8.2 m/s 75.1 mm 13.9° 1018.1 hPa 5.0 m/s 5.6 mm 14.6° 1017.2 hPa 7.8 m/s 0.0 mm 13.6° 1018.9 hPa 8.0 m/s 14.5° 1018.3 hPa 9.1 m/s
 07:53     17:05    Daglengte: 9:12 Vrijdag 13 Dec
00:00 13.9° 1018.7 hPa 6.8 m/s 15.2 mm 13.9° 1018.6 hPa 7.7 m/s 77.5 mm 14.3° 1018.7 hPa 5.1 m/s 1.2 mm 14.7° 1017.5 hPa 7.1 m/s 0.0 mm 13.7° 1018.9 hPa 7.2 m/s 14.4° 1018.7 hPa 8.4 m/s
03:00 13.9° 1018.3 hPa 6.5 m/s 16.4 mm 13.8° 1018.5 hPa 7.5 m/s 78.2 mm 14.4° 1018.8 hPa 5.2 m/s 0.1 mm 14.9° 1017.1 hPa 6.8 m/s 0.0 mm 13.6° 1018.2 hPa 6.8 m/s 14.3° 1018.8 hPa 7.9 m/s
06:00 13.9° 1019.0 hPa 6.2 m/s 16.6 mm 13.7° 1018.3 hPa 6.7 m/s 79.3 mm 14.2° 1019.3 hPa 4.0 m/s 0.1 mm 15.1° 1017.8 hPa 6.7 m/s 0.0 mm 13.7° 1019.2 hPa 6.6 m/s 14.2° 1019.1 hPa 7.3 m/s
09:00 13.9° 1020.5 hPa 5.6 m/s 9.9 mm 13.9° 1020.3 hPa 5.7 m/s 80.9 mm 14.1° 1021.3 hPa 3.4 m/s 0.3 mm 15.1° 1019.4 hPa 6.6 m/s 0.0 mm 13.7° 1020.5 hPa 6.0 m/s 14.2° 1021.1 hPa 6.2 m/s
12:00 14.5° 1021.0 hPa 5.3 m/s 17.2 mm 14.3° 1020.9 hPa 5.8 m/s 82.4 mm 15.1° 1021.8 hPa 3.6 m/s 0.2 mm 15.3° 1020.0 hPa 5.6 m/s 0.0 mm 14.4° 1020.9 hPa 5.6 m/s 14.4° 1021.9 hPa 6.1 m/s
15:00 14.3° 1020.5 hPa 5.0 m/s 12.9 mm 14.1° 1019.9 hPa 5.5 m/s 84.5 mm 14.6° 1021.3 hPa 3.7 m/s 1.0 mm 14.3° 1020.3 hPa 5.3 m/s 14.3° 1020.8 hPa 6.0 m/s
18:00 13.6° 1020.7 hPa 3.8 m/s 13.0 mm 13.7° 1019.8 hPa 3.7 m/s 86.3 mm 13.7° 1021.4 hPa 2.6 m/s 1.1 mm 13.3° 1020.5 hPa 4.8 m/s 14.0° 1021.0 hPa 4.2 m/s
21:00 13.3° 1021.2 hPa 3.9 m/s 12.1 mm 13.8° 1020.6 hPa 4.0 m/s 87.4 mm 13.3° 1022.1 hPa 2.6 m/s 0.6 mm 13.2° 1021.0 hPa 4.8 m/s 14.0° 1021.9 hPa 4.0 m/s
 07:53     17:06    Daglengte: 9:13 Zaterdag 14 Dec
00:00 13.1° 1020.8 hPa 3.2 m/s 6.0 mm 13.5° 1020.2 hPa 3.8 m/s 88.2 mm 13.4° 1021.2 hPa 2.2 m/s 0.4 mm 12.6° 1020.7 hPa 3.3 m/s 13.8° 1021.9 hPa 3.4 m/s
03:00 13.1° 1019.9 hPa 3.2 m/s 10.6 mm 13.3° 1019.0 hPa 3.8 m/s 90.3 mm 13.3° 1021.1 hPa 2.3 m/s 0.7 mm 12.3° 1019.6 hPa 3.2 m/s 13.6° 1020.8 hPa 4.2 m/s
06:00 12.8° 1019.3 hPa 3.4 m/s 6.3 mm 13.2° 1018.3 hPa 4.6 m/s 91.7 mm 12.8° 1020.3 hPa 1.3 m/s 0.2 mm 12.6° 1019.1 hPa 3.7 m/s 13.6° 1020.0 hPa 4.1 m/s
09:00 13.3° 1019.7 hPa 4.0 m/s 0.0 mm 13.5° 1018.8 hPa 5.2 m/s 92.0 mm 13.2° 1020.3 hPa 2.2 m/s 0.1 mm 13.3° 1019.7 hPa 4.2 m/s 13.7° 1020.2 hPa 4.6 m/s
12:00 14.1° 1019.8 hPa 5.0 m/s 27.1 mm 14.6° 1018.5 hPa 7.0 m/s 92.3 mm 14.8° 1019.9 hPa 5.4 m/s 0.5 mm 14.0° 1020.2 hPa 4.7 m/s 14.2° 1019.8 hPa 6.0 m/s
15:00 13.9° 1018.4 hPa 5.0 m/s 10.4 mm 14.2° 1017.0 hPa 6.7 m/s 92.4 mm 14.7° 1018.1 hPa 4.6 m/s 0.3 mm 13.3° 1019.0 hPa 4.9 m/s 14.1° 1017.9 hPa 6.9 m/s
18:00 13.1° 1017.7 hPa 5.0 m/s 31.1 mm 13.7° 1016.8 hPa 5.5 m/s 92.7 mm 13.3° 1017.8 hPa 4.3 m/s 0.4 mm 12.7° 1017.9 hPa 5.1 m/s 13.8° 1017.8 hPa 6.4 m/s
21:00 12.6° 1017.2 hPa 6.2 m/s 26.2 mm 12.5° 1017.1 hPa 6.1 m/s 13.8° 1017.9 hPa 7.0 m/s 26.2 mm
 07:54     17:06    Daglengte: 9:12 Zondag 15 Dec
00:00 12.5° 1016.7 hPa 6.7 m/s 26.5 mm 12.4° 1016.7 hPa 6.6 m/s 13.9° 1017.0 hPa 7.7 m/s 26.5 mm
03:00 12.2° 1014.9 hPa 7.1 m/s 26.8 mm 12.1° 1014.8 hPa 7.0 m/s 14.0° 1016.1 hPa 8.0 m/s 26.8 mm
06:00 11.9° 1013.0 hPa 7.5 m/s 28.0 mm 11.7° 1012.8 hPa 7.4 m/s 13.5° 1014.8 hPa 8.3 m/s 28.0 mm
09:00 12.3° 1012.3 hPa 8.3 m/s 33.8 mm 12.3° 1012.0 hPa 8.4 m/s 12.8° 1015.2 hPa 7.3 m/s 33.8 mm
12:00 12.9° 1011.6 hPa 9.2 m/s 44.2 mm 12.9° 1011.3 hPa 9.3 m/s 13.3° 1014.6 hPa 7.8 m/s 44.2 mm
15:00 12.1° 1010.8 hPa 4.6 m/s 50.6 mm 12.1° 1010.6 hPa 4.8 m/s 12.2° 1012.0 hPa 3.3 m/s 50.6 mm
18:00 11.3° 1010.1 hPa 0.8 m/s 58.2 mm 11.2° 1010.0 hPa 0.2 m/s 12.9° 1011.1 hPa 6.9 m/s 58.2 mm
21:00 10.8° 1008.3 hPa 1.3 m/s 69.7 mm 10.8° 1008.0 hPa 1.2 m/s 10.9° 1010.8 hPa 2.9 m/s 69.7 mm
 07:55     17:06    Daglengte: 9:11 Maandag 16 Dec
00:00 10.4° 1006.4 hPa 2.2 m/s 74.9 mm 10.4° 1006.1 hPa 2.2 m/s 10.5° 1009.3 hPa 2.2 m/s 74.9 mm
03:00 10.1° 1003.6 hPa 2.3 m/s 77.6 mm 10.1° 1003.3 hPa 2.4 m/s 10.4° 1006.4 hPa 2.1 m/s 77.6 mm
06:00 9.8° 1000.8 hPa 2.5 m/s 78.2 mm 9.8° 1000.5 hPa 2.5 m/s 10.4° 1004.2 hPa 2.7 m/s 78.2 mm
09:00 10.8° 999.8 hPa 3.2 m/s 83.8 mm 10.9° 999.4 hPa 3.3 m/s 9.9° 1004.1 hPa 1.8 m/s 83.8 mm
12:00 11.6° 998.8 hPa 4.7 m/s 91.1 mm 11.9° 998.3 hPa 4.1 m/s 8.0° 1004.9 hPa 10.8 m/s 91.1 mm
15:00 10.4° 997.8 hPa 3.5 m/s 91.4 mm 10.6° 997.1 hPa 3.2 m/s 8.7° 1005.5 hPa 6.3 m/s 91.4 mm
18:00 9.1° 997.0 hPa 2.6 m/s 91.5 mm 9.2° 996.0 hPa 2.3 m/s 8.6° 1007.7 hPa 5.4 m/s 91.5 mm
21:00 8.5° 998.0 hPa 2.5 m/s 91.8 mm 8.6° 996.9 hPa 2.2 m/s 8.5° 1010.2 hPa 5.3 m/s 91.9 mm
 07:55     17:07    Daglengte: 9:12 Dinsdag 17 Dec
00:00 8.0° 998.9 hPa 2.3 m/s 92.1 mm 7.9° 997.7 hPa 2.1 m/s 8.5° 1011.8 hPa 4.2 m/s 92.1 mm
03:00 7.9° 1000.8 hPa 2.4 m/s 93.2 mm 7.8° 999.9 hPa 2.3 m/s 8.6° 1011.5 hPa 3.2 m/s 93.2 mm
06:00 7.8° 1002.8 hPa 2.7 m/s 95.3 mm 7.7° 1002.0 hPa 2.5 m/s 9.1° 1011.8 hPa 5.0 m/s 95.3 mm
09:00 9.1° 1005.8 hPa 3.9 m/s 97.6 mm 9.1° 1005.2 hPa 3.9 m/s 9.3° 1011.8 hPa 4.1 m/s 97.6 mm
12:00 10.3° 1008.6 hPa 5.4 m/s 100.7 mm 10.4° 1008.5 hPa 5.3 m/s 9.2° 1009.8 hPa 6.3 m/s 100.7 mm
15:00 9.7° 1010.8 hPa 5.4 m/s 101.2 mm 9.7° 1011.0 hPa 5.5 m/s 10.2° 1008.7 hPa 4.7 m/s 101.2 mm
18:00 9.0° 1013.4 hPa 5.5 m/s 101.2 mm 8.9° 1013.6 hPa 5.7 m/s 10.1° 1011.3 hPa 3.3 m/s 101.2 mm
21:00 7.9° 1015.5 hPa 3.7 m/s 101.2 mm 7.8° 1015.5 hPa 3.9 m/s 9.9° 1014.6 hPa 2.2 m/s 101.2 mm
 07:56     17:07    Daglengte: 9:11 Woensdag 18 Dec
00:00 6.9° 1017.4 hPa 2.1 m/s 101.2 mm 6.6° 1017.5 hPa 2.0 m/s 10.1° 1016.4 hPa 2.9 m/s 101.2 mm
03:00 7.3° 1017.9 hPa 2.6 m/s 101.2 mm 7.0° 1018.0 hPa 2.5 m/s 10.3° 1017.2 hPa 2.8 m/s 101.2 mm
06:00 7.8° 1018.3 hPa 3.1 m/s 101.3 mm 7.5° 1018.4 hPa 3.1 m/s 10.7° 1017.7 hPa 2.8 m/s 101.3 mm
09:00 9.9° 1018.5 hPa 4.2 m/s 101.4 mm 9.8° 1018.4 hPa 4.3 m/s 11.3° 1019.1 hPa 3.2 m/s 101.4 mm
12:00 12.1° 1018.5 hPa 5.3 m/s 101.4 mm 12.0° 1018.4 hPa 5.5 m/s 13.4° 1020.1 hPa 3.3 m/s 101.4 mm
15:00 12.0° 1016.8 hPa 6.3 m/s 101.5 mm 11.8° 1016.6 hPa 6.5 m/s 14.9° 1018.8 hPa 4.2 m/s 101.5 mm
18:00 11.7° 1015.3 hPa 7.1 m/s 101.6 mm 11.5° 1014.9 hPa 7.4 m/s 13.5° 1019.2 hPa 3.6 m/s 101.6 mm
 07:57     17:07    Daglengte: 9:10 Donderdag 19 Dec
00:00 11.4° 1010.4 hPa 9.8 m/s 101.6 mm 11.3° 1009.6 hPa 10.4 m/s 12.5° 1019.2 hPa 3.4 m/s 101.6 mm
06:00 11.0° 1004.9 hPa 9.0 m/s 101.6 mm 10.9° 1003.8 hPa 9.4 m/s 12.4° 1016.9 hPa 5.1 m/s 101.6 mm
12:00 12.0° 1004.6 hPa 7.1 m/s 101.7 mm 11.8° 1003.5 hPa 7.3 m/s 14.2° 1016.6 hPa 5.4 m/s 101.7 mm
18:00 12.1° 1007.9 hPa 4.9 m/s 101.9 mm 12.0° 1007.4 hPa 4.9 m/s 13.6° 1013.9 hPa 5.1 m/s 101.9 mm
 07:57     17:08    Daglengte: 9:11 Vrijdag 20 Dec
00:00 11.9° 1005.6 hPa 9.2 m/s 104.5 mm 11.8° 1004.7 hPa 9.3 m/s 12.5° 1015.3 hPa 8.1 m/s 104.5 mm
06:00 13.7° 1002.3 hPa 10.6 m/s 104.7 mm 13.9° 1001.3 hPa 11.1 m/s 11.8° 1013.8 hPa 5.3 m/s 104.7 mm
12:00 14.5° 1000.0 hPa 12.3 m/s 105.1 mm 14.6° 998.8 hPa 12.6 m/s 13.8° 1013.6 hPa 8.5 m/s 105.1 mm
18:00 12.4° 1004.3 hPa 6.0 m/s 112.0 mm 12.3° 1003.7 hPa 5.9 m/s 13.2° 1011.3 hPa 6.6 m/s 112.0 mm
 07:58     17:08    Daglengte: 9:10 Zaterdag 21 Dec
00:00 11.7° 1015.5 hPa 4.2 m/s 114.3 mm 11.7° 1015.5 hPa 4.2 m/s 114.3 mm
06:00 10.9° 1017.7 hPa 4.8 m/s 116.9 mm 10.9° 1017.7 hPa 4.8 m/s 116.9 mm
12:00 12.6° 1017.8 hPa 0.2 m/s 1.1 mm
18:00 11.8° 1018.8 hPa 0.5 m/s 0.9 mm
 07:58     17:09    Daglengte: 9:11 Zondag 22 Dec
00:00 10.7° 1021.0 hPa 1.4 m/s 0.3 mm
06:00 10.2° 1020.6 hPa 2.2 m/s 0.6 mm
12:00 12.2° 1021.1 hPa 2.4 m/s 1.0 mm
18:00 11.6° 1020.2 hPa 1.5 m/s 1.0 mm
 07:59     17:09    Daglengte: 9:10 Maandag 23 Dec
00:00 11.1° 1020.6 hPa 1.3 m/s 0.8 mm
06:00 10.5° 1019.0 hPa 1.3 m/s 0.4 mm
12:00 12.1° 1018.2 hPa 2.9 m/s 0.4 mm
18:00 11.6° 1015.9 hPa 1.4 m/s 4.0 mm
 07:59     17:10    Daglengte: 9:11 Dinsdag 24 Dec
00:00 11.0° 1015.9 hPa 1.1 m/s 2.4 mm
06:00 10.6° 1015.5 hPa 0.0 m/s 2.4 mm
12:00 12.0° 1017.2 hPa 1.0 m/s 2.0 mm
18:00 11.4° 1017.3 hPa 1.6 m/s 0.4 mm
 07:59     17:10    Daglengte: 9:11 Woensdag 25 Dec
00:00 10.4° 1018.5 hPa 1.9 m/s 0.5 mm
06:00 9.9° 1018.1 hPa 2.4 m/s 0.7 mm
12:00 11.6° 1018.1 hPa 2.0 m/s 2.0 mm
18:00 11.0° 1017.8 hPa 2.3 m/s 3.2 mm
 08:00     17:11    Daglengte: 9:11 Donderdag 26 Dec
00:00 9.8° 1019.6 hPa 2.4 m/s 0.8 mm
06:00 9.1° 1019.5 hPa 2.0 m/s 0.4 mm
12:00 11.1° 1020.4 hPa 1.3 m/s 0.7 mm
FMI Hirlam - 7.5 km EWN WRFDA - 12 km DWD ICON - 7 km GFS - 25 km Basiskaart






























































Updatetijd (Europe/Brussels) Resolutie Lengte Stap
FMI Hirlam 18:00, 00:00, 06:00, 12:00 7.5 km 49h 1h
EWN WRFDA 14:30, 20:30, 02:30, 08:30 12 km 73h 1h
DWD ICON 10:45, 16:45, 22:45, 04:45 7 km 75h 1h
GFS 13:30, 19:30, 01:30, 07:30 25 km 237h 3h
30+ mm
25-30 mm
20-25 mm
15-20 mm
10-15 mm
6-10 mm
4-6 mm
2-4 mm
1-2 mm
0.5-1 mm
0.2-0.5 mm
0.1-0.2 mm
30+ mm
25-30 mm
20-25 mm
15-20 mm
10-15 mm
6-10 mm
4-6 mm
2-4 mm
1-2 mm
0.5-1 mm
0.2-0.5 mm
0.1-0.2 mm
Sneeuwval
Natte sneeuw
Hagel
Vorst
30+ mm
25-30 mm
20-25 mm
15-20 mm
10-15 mm
6-10 mm
4-6 mm
2-4 mm
1-2 mm
0.5-1 mm
0.2-0.5 mm
0.1-0.2 mm
Sneeuwval
Natte sneeuw
Hagel
Vorst
Onweer
50 mm
40 mm
30 mm
26 mm
22 mm
18 mm
14 mm
10 mm
9 mm
8 mm
7 mm
6 mm
5 mm
4.5 mm
4 mm
3.5 mm
3 mm
2.5 mm
2 mm
1.5 mm
1 mm
0.8 mm
0.6 mm
0.4 mm
0.2 mm
0.05 mm
35°
30°
25°
20°
15°
10°
-5°
-10°
-15°
-20°
-25°
-30°
-35°
33> m/s
29 m/s
25 m/s
21 m/s
17 m/s
14 m/s
11 m/s
8 m/s
5 m/s
3 m/s
0 m/s
2600 J/kg
2400 J/kg
2200 J/kg
2000 J/kg
1800 J/kg
1600 J/kg
1400 J/kg
1200 J/kg
1000 J/kg
800 J/kg
600 J/kg
400 J/kg
200 J/kg
70 dBZ
65 dBZ
60 dBZ
55 dBZ
50 dBZ
45 dBZ
40 dBZ
35 dBZ
30 dBZ
25 dBZ
20 dBZ
15 dBZ
10 dBZ
5 dBZ
-1 K
-2 K
-3 K
-4 K
-5 K
-6 K
-7 K
-8 K
-9 K
950 m²/s²
900 m²/s²
850 m²/s²
800 m²/s²
750 m²/s²
700 m²/s²
650 m²/s²
600 m²/s²
550 m²/s²
500 m²/s²
450 m²/s²
400 m²/s²
350 m²/s²
300 m²/s²
250 m²/s²
200 m²/s²
150 m²/s²
100 m²/s²
46 m/s
44 m/s
42 m/s
40 m/s
38 m/s
36 m/s
34 m/s
32 m/s
30 m/s
28 m/s
26 m/s
24 m/s
22 m/s
20 m/s
16 m/s
12 m/s
8 m/s
4 m/s
30 m/s
28 m/s
26 m/s
24 m/s
22 m/s
20 m/s
18 m/s
16 m/s
14 m/s
12 m/s
10 m/s
8 m/s
6 m/s
4 m/s
2 m/s
3.0
2.8
2.6
2.4
2.2
2.0
1.8
1.6
1.4
1.2
1.0
0.8
0.6
0.4
0.2
15
14
13
12
11
10
9
8
7
6
5
4
3
2
1
90%
80%
70%
60%
50%
40%
30%
20%
10%
42
40
38
36
34
32
30
28
26
24
22
20
18
16
14
12
90+ cm
80-90 cm
70-80 cm
60-70 cm
50-60 cm
40-50 cm
30-40 c